Regional Weather Roundup
Issued by NWS Columbia, SC

Home | Current Version | Previous Version | Text Only | Print | Product List | Glossary On
Versions: 1 2 3 4 5 6 7 8 9 10 11 12 13 14 15 16 17 18 19 20 21 22 23 24 25 26 27 28 29 30 31 32 33 34 35 36 37 38 39 40 41 42 43 44 45 46 47 48 49 50
000
ASUS42 KCAE 270810
RWRCAE
REGIONAL WEATHER ROUNDUP
NATIONAL WEATHER SERVICE COLUMBIA SC
400 AM EDT WED MAY 27 2015

NOTE: "FAIR" INDICATES FEW OR NO CLOUDS BELOW 12,000 FEET WITH NO
SIGNIFICANT WEATHER AND/OR OBSTRUCTIONS TO VISIBILITY.

NOT ALL STATIONS ARE QUALITY CONTROLLED BY THE NATIONAL
WEATHER SERVICE. USE DATA WITH CAUTION...ESPECIALLY
DEWPOINT OBSERVATIONS.

SCZ001>056-GAZ040-063>065-077-270900-
...UPSTATE SOUTH CAROLINA...

CITY           SKY/WX    TMP DP  RH WIND       PRES   REMARKS
ANDERSON       CLOUDY    66  65  96 CALM      30.20F
LIBERTY        CLOUDY   N/A N/A N/A CALM      30.20F HAZE
SPARTANBURG    MOCLDY    68  68 100 W5        30.20S
CLEMSON        CLOUDY    68  64  87 W5        30.22F
GREENVILLE     CLOUDY    66  63  90 W9        30.21F
GREENWOOD      CLOUDY    66  65  96 CALM      30.21S FOG
GREER          CLOUDY    66  65  96 W6        30.19F
ROCK HILL      PTCLDY    64  64 100 SW5       30.20S
CHESTER        CLOUDY    68  64  88 S3        30.21S FOG
LAURENS        FOG       64  64 100 CALM      30.20S VSB 3/4


...CENTRAL SOUTH CAROLINA...

CITY           SKY/WX    TMP DP  RH WIND       PRES   REMARKS
COLUMBIA APT   MOCLDY    70  65  84 CALM      30.18S
COLUMBIA OWENS PTCLDY    69  65  86 CALM      30.19S
FLORENCE       MOCLDY    72  70  93 SE6       30.18F
MCENTIRE ANGB  MOCLDY    65  65  97 NE1       30.18S
ORANGEBURG     MOCLDY    68  66  93 SE3       30.18F
SUMTER SHAW    MOCLDY    70  66  88 W5        30.17S
NEWBERRY       CLOUDY    64  64 100 CALM      30.22F FOG
AIKEN          FAIR      64  63  94 CALM      30.23R
BARNWELL       FAIR      70  70 100 CALM      30.19R
CAMDEN         FAIR      66  66 100 CALM      30.19S
LANCASTER      LGT RAIN  64  64 100 CALM      30.20S
WINNSBORO      MOSUNNY   64  64 100 CALM      30.20R


...EASTERN AND COASTAL SOUTH CAROLINA...

CITY           SKY/WX    TMP DP  RH WIND       PRES   REMARKS
CONWAY         FAIR      70  70 100 CALM      30.20F
MARION         FAIR      72  72 100 S3        30.20F
HARTSVILLE     FAIR      66  64  94 CALM      30.18S
FLORENCE       MOCLDY    72  70  93 SE6       30.18F
CHARLESTON APT CLOUDY    74  70  87 S8        30.18F
MOUNT PLEASANT FAIR      73  72  94 SE6       30.19F
WALTERBORO     PTSUNNY   68  68 100 CALM      30.19S
BEAUFORT       CLOUDY    77  71  82 S5        30.18F


...EASTERN GEORGIA...

CITY           SKY/WX    TMP DP  RH WIND       PRES   REMARKS
AUGUSTA BUSH F CLOUDY    68  67  96 CALM      30.19R
AUGUSTA DANIEL CLOUDY    70  67  90 CALM      30.20S
THOMSON        CLOUDY    69  69 100 CALM      30.24S
WASHINGTON     CLOUDY    68  68 100 CALM      30.20R FOG
CLAXTON        FAIR      68  68 100 CALM      30.18S
SYLVANIA       MOSUNNY   70  69  98 CALM      30.18F
STATESBORO     MOCLDY    69  32  25 CALM      30.18S
SAVANNAH       CLOUDY    74  69  85 SE8       30.16F


...SOUTHERN NORTH CAROLINA...

CITY           SKY/WX    TMP DP  RH WIND       PRES   REMARKS
CHARLOTTE      PTCLDY    66  63  90 S5        30.20R
MONROE         PTCLDY    65  63  93 CALM      30.18F
WADESBORO      SUNNY     66  65  96 CALM      30.19F
ROCKINGHAM     PTSUNNY   68  65  91 CALM      30.19F
RUTHERFORDTON  CLOUDY    64  64 100 S3        30.21S
ASHEVILLE      PTCLDY    61  59  93 S3        30.23S

$$


USA.gov is the U.S. government's official web portal to all federal, state and local government web resources and services.